THORAD DELTA 1 DEB, 8593

Orbit data source: Space-Track

THORAD DELTA 1 DEB, 8593 is space debris in SSO originally from a launch on Fri, 15 Nov 1974 UTC launched from the Air Force Western Test Range (AFWTR). Debris objects in space refer to the collection of defunct objects orbiting the Earth. Examples of debris include non-operational satellites, rocket bodies, and fragments generated from explosions, collisions, or faulty payload assembly.

Loading next visibility...
Identifier
8593, 1974-089DG
Orbit
SSO
Country
Flag of USUS
Related business
Manufacturer
Unknown
Mission
Spacecraft
Bus & Motor
Unknown
Mass
Unknown
Launch date (UTC)
1974-11-15 (52 years ago)
Launch vehicle
Unknown
Launch site
Air Force Western Test Range (AFWTR)
Object type
Payload
Rocket body
Debris
Shape & HBR
Unknown shape, 0.1 m
Radar Cross Section
Medium (>0.1 m² and <1 m²)

Expand to show TLE details & history
Last TLE update: 1 day ago

TLE from 1 day ago
0 THORAD DELTA 1 DEB
1 08593U 74089DG  26206.61377777 -.00000027  00000-0  91079-4 0  9994
2 08593 101.9156 160.2272 0224014  52.5264 121.4841 12.71147582396970
Epoch: 2026-07-25T14:43Z
TLE epoch observation values (Epoch: 2026-07-25T14:43:50.399Z)
Latitude
3.66539°
Longitude
176.71442°
Altitude
1,472.996 km
Speed
7.084 km/s
True Right ascension
22h 43m 59s
True Declination
3° 38' 44"
Sunlit
Object was in full shadow at epoch
Visualization orbit readout
Latitude
Unknown
Longitude
Unknown
Altitude
Unknown
Speed
Unknown
Apparent Right ascension
Unknown
Apparent Declination
Unknown
Sunlit
N/A
Visualization observer readout
Local Sidereal Time
08:13:09
Azimuth
Unknown
Elevation
Unknown
Doppler factor
Unknown
Orbital elements
Apogee altitude
1,548.473 km
Perigee altitude
1,201.119 km
Semi-major axis
7,752.933 km
Eccentricity
0.0224
Inclination
101.9156°
RAAN
160.2272°
Arg. of periapsis
52.5264°
True anomaly
123.64113°
Mean anomaly
121.4841°
Eccentric anomaly
122.5658°
Mean motion
3.17939 °/min
Orbital period
113.23 mins
BSTAR
0.000091079
Loading maneuver chart data...
Computing Atmospheric mass density...

Documentation

Showing up to 5 results
|